Time,TemperatureF,DewpointF,PressureIn,WindDirection,WindDirectionDegrees,WindSpeedMPH,WindSpeedGustMPH,Humidity,HourlyPrecipIn,Conditions,Clouds,dailyrainin,SoftwareType,DateUTC
2013-01-11 00:00:00,38.7,29.8,30.20,SSE,162,0.0,-999.0,70,0.00,,,0.01,Wunderground v.1.15,2013-01-11 05:00:00,
2013-01-11 00:01:00,38.7,29.8,30.20,SSE,162,0.0,-999.0,70,0.00,,,0.00,Wunderground v.1.15,2013-01-11 05:01:00,
2013-01-11 00:03:00,38.8,29.8,30.20,SSE,162,0.0,-999.0,70,0.00,,,0.00,Wunderground v.1.15,2013-01-11 05:03:00,
2013-01-11 00:08:00,38.9,30.3,30.20,SSE,161,0.0,-999.0,71,0.00,,,0.00,Wunderground v.1.15,2013-01-11 05:08:00,
2013-01-11 00:14:00,38.7,30.4,30.20,SSE,162,0.0,-999.0,72,0.00,,,0.00,Wunderground v.1.15,2013-01-11 05:14:00,
2013-01-11 00:20:00,38.2,31.0,30.19,SSE,162,0.0,-999.0,75,0.00,,,0.00,Wunderground v.1.15,2013-01-11 05:20:00,
2013-01-11 00:26:00,37.5,30.9,30.19,SSE,162,0.0,-999.0,77,0.00,,,0.00,Wunderground v.1.15,2013-01-11 05:26:00,
2013-01-11 00:32:00,36.9,30.4,30.18,SSE,162,0.0,-999.0,77,0.00,,,0.00,Wunderground v.1.15,2013-01-11 05:32:00,
2013-01-11 00:38:00,36.6,30.4,30.18,SSE,162,0.0,-999.0,78,0.00,,,0.00,Wunderground v.1.15,2013-01-11 05:38:00,
2013-01-11 00:44:00,36.4,30.5,30.18,SSE,162,0.0,-999.0,79,0.00,,,0.00,Wunderground v.1.15,2013-01-11 05:44:00,
2013-01-11 00:50:00,36.4,30.5,30.17,SSE,162,0.0,-999.0,79,0.00,,,0.00,Wunderground v.1.15,2013-01-11 05:50:00,
2013-01-11 00:56:00,36.4,30.8,30.17,SSE,162,0.0,-999.0,80,0.00,,,0.00,Wunderground v.1.15,2013-01-11 05:56:00,
2013-01-11 01:02:00,36.2,30.9,30.17,SSE,162,0.0,-999.0,81,0.00,,,0.00,Wunderground v.1.15,2013-01-11 06:02:00,
2013-01-11 01:08:00,36.1,31.1,30.17,SSE,162,0.0,-999.0,82,0.00,,,0.00,Wunderground v.1.15,2013-01-11 06:08:00,
2013-01-11 01:14:00,36.3,31.0,30.17,SSE,162,0.0,-999.0,81,0.00,,,0.00,Wunderground v.1.15,2013-01-11 06:14:00,
2013-01-11 01:20:00,36.6,31.0,30.17,SSE,162,0.0,-999.0,80,0.00,,,0.00,Wunderground v.1.15,2013-01-11 06:20:00,
2013-01-11 01:26:00,36.6,31.3,30.17,SSE,162,1.0,-999.0,81,0.00,,,0.00,Wunderground v.1.15,2013-01-11 06:26:00,
2013-01-11 01:32:00,36.7,31.1,30.17,SSE,162,1.0,-999.0,80,0.00,,,0.00,Wunderground v.1.15,2013-01-11 06:32:00,
2013-01-11 01:38:00,36.9,31.3,30.16,SSE,162,0.0,-999.0,80,0.00,,,0.00,Wunderground v.1.15,2013-01-11 06:38:00,
2013-01-11 01:44:00,36.9,31.3,30.16,SSE,162,0.0,-999.0,80,0.00,,,0.00,Wunderground v.1.15,2013-01-11 06:44:00,
2013-01-11 01:50:00,36.9,31.3,30.16,SSE,162,0.0,-999.0,80,0.00,,,0.00,Wunderground v.1.15,2013-01-11 06:50:00,
2013-01-11 01:56:00,36.6,31.6,30.16,SSE,162,0.0,-999.0,82,0.00,,,0.00,Wunderground v.1.15,2013-01-11 06:56:00,
2013-01-11 02:02:00,36.3,31.3,30.17,SSE,162,0.0,-999.0,82,0.00,,,0.00,Wunderground v.1.15,2013-01-11 07:02:00,
2013-01-11 02:08:00,36.2,31.5,30.16,SSE,162,1.0,-999.0,83,0.00,,,0.00,Wunderground v.1.15,2013-01-11 07:08:00,
2013-01-11 02:13:00,36.0,31.6,30.16,SSE,162,0.0,-999.0,84,0.00,,,0.00,Wunderground v.1.15,2013-01-11 07:13:00,
2013-01-11 02:19:00,36.1,31.7,30.16,SSE,162,1.0,-999.0,84,0.00,,,0.00,Wunderground v.1.15,2013-01-11 07:19:00,
2013-01-11 02:25:00,36.6,31.9,30.15,SSE,162,2.0,-999.0,83,0.00,,,0.00,Wunderground v.1.15,2013-01-11 07:25:00,
2013-01-11 02:31:00,37.1,32.1,30.16,SSE,162,2.0,-999.0,82,0.00,,,0.00,Wunderground v.1.15,2013-01-11 07:31:00,
2013-01-11 02:37:00,37.2,31.9,30.16,SSE,162,1.0,-999.0,81,0.00,,,0.00,Wunderground v.1.15,2013-01-11 07:37:00,
2013-01-11 02:43:00,37.4,31.8,30.16,SSE,166,2.0,-999.0,80,0.00,,,0.00,Wunderground v.1.15,2013-01-11 07:43:00,
2013-01-11 02:49:00,38.0,32.1,30.16,SSE,168,4.0,-999.0,79,0.00,,,0.00,Wunderground v.1.15,2013-01-11 07:49:00,
2013-01-11 02:54:00,38.0,31.7,30.16,SSE,168,4.0,-999.0,78,0.00,,,0.00,Wunderground v.1.15,2013-01-11 07:54:00,
2013-01-11 03:00:00,38.2,31.9,30.16,South,169,4.0,-999.0,78,0.00,,,0.00,Wunderground v.1.15,2013-01-11 08:00:00,
2013-01-11 03:06:00,38.4,31.8,30.15,South,169,2.0,-999.0,77,0.00,,,0.00,Wunderground v.1.15,2013-01-11 08:06:00,
2013-01-11 03:12:00,38.6,31.7,30.13,South,169,0.0,-999.0,76,0.00,,,0.00,Wunderground v.1.15,2013-01-11 08:12:00,
2013-01-11 03:18:00,39.1,31.8,30.13,South,169,0.0,-999.0,75,0.00,,,0.00,Wunderground v.1.15,2013-01-11 08:18:00,
2013-01-11 03:24:00,39.4,31.8,30.13,South,169,0.0,-999.0,74,0.00,,,0.00,Wunderground v.1.15,2013-01-11 08:24:00,
2013-01-11 03:30:00,39.6,32.0,30.13,South,169,1.0,-999.0,74,0.00,,,0.00,Wunderground v.1.15,2013-01-11 08:30:00,
2013-01-11 03:35:00,39.6,32.0,30.12,South,169,2.0,-999.0,74,0.00,,,0.00,Wunderground v.1.15,2013-01-11 08:35:00,
2013-01-11 03:41:00,39.6,32.0,30.12,South,169,2.0,-999.0,74,0.00,,,0.00,Wunderground v.1.15,2013-01-11 08:41:00,
2013-01-11 03:47:00,39.4,32.1,30.11,South,169,2.0,-999.0,75,0.00,,,0.00,Wunderground v.1.15,2013-01-11 08:47:00,
2013-01-11 03:53:00,39.5,32.2,30.11,South,169,1.0,-999.0,75,0.00,,,0.00,Wunderground v.1.15,2013-01-11 08:53:00,
2013-01-11 03:59:00,39.7,32.1,30.10,South,170,1.0,-999.0,74,0.00,,,0.00,Wunderground v.1.15,2013-01-11 08:59:00,
2013-01-11 04:05:00,39.9,32.3,30.10,South,169,0.0,-999.0,74,0.00,,,0.00,Wunderground v.1.15,2013-01-11 09:05:00,
2013-01-11 04:11:00,39.9,32.3,30.09,South,169,1.0,-999.0,74,0.00,,,0.00,Wunderground v.1.15,2013-01-11 09:11:00,
2013-01-11 04:17:00,40.1,32.5,30.09,South,170,1.0,-999.0,74,0.00,,,0.00,Wunderground v.1.15,2013-01-11 09:17:00,
2013-01-11 04:23:00,40.0,32.7,30.09,South,169,2.0,-999.0,75,0.00,,,0.00,Wunderground v.1.15,2013-01-11 09:23:00,
2013-01-11 04:29:00,39.9,32.6,30.09,South,170,2.0,-999.0,75,0.00,,,0.00,Wunderground v.1.15,2013-01-11 09:29:00,
2013-01-11 04:34:00,40.0,32.7,30.08,SSE,164,1.0,-999.0,75,0.00,,,0.00,Wunderground v.1.15,2013-01-11 09:34:00,
2013-01-11 04:40:00,40.3,32.7,30.09,South,177,1.0,-999.0,74,0.00,,,0.00,Wunderground v.1.15,2013-01-11 09:40:00,
2013-01-11 04:46:00,40.6,33.0,30.09,South,177,1.0,-999.0,74,0.00,,,0.00,Wunderground v.1.15,2013-01-11 09:46:00,
2013-01-11 04:52:00,40.6,33.0,30.09,South,177,0.0,-999.0,74,0.00,,,0.00,Wunderground v.1.15,2013-01-11 09:52:00,
2013-01-11 04:58:00,40.9,33.2,30.09,South,177,0.0,-999.0,74,0.00,,,0.00,Wunderground v.1.15,2013-01-11 09:58:00,
2013-01-11 05:04:00,41.1,33.4,30.08,South,177,0.0,-999.0,74,0.00,,,0.00,Wunderground v.1.15,2013-01-11 10:04:00,
2013-01-11 05:10:00,40.9,33.2,30.08,South,177,0.0,-999.0,74,0.00,,,0.00,Wunderground v.1.15,2013-01-11 10:10:00,
2013-01-11 05:15:00,40.9,33.2,30.08,SSE,159,0.0,-999.0,74,0.00,,,0.00,Wunderground v.1.15,2013-01-11 10:15:00,
2013-01-11 05:21:00,41.0,33.3,30.07,SSE,159,0.0,-999.0,74,0.00,,,0.00,Wunderground v.1.15,2013-01-11 10:21:00,
2013-01-11 05:27:00,41.1,33.4,30.07,SSE,159,0.0,-999.0,74,0.00,,,0.00,Wunderground v.1.15,2013-01-11 10:27:00,
2013-01-11 05:33:00,41.3,33.3,30.06,SSE,159,0.0,-999.0,73,0.00,,,0.00,Wunderground v.1.15,2013-01-11 10:33:00,
2013-01-11 05:39:00,41.5,33.5,30.05,SSE,159,0.0,-999.0,73,0.00,,,0.00,Wunderground v.1.15,2013-01-11 10:39:00,
2013-01-11 05:44:00,41.6,33.6,30.05,SSE,159,0.0,-999.0,73,0.00,,,0.00,Wunderground v.1.15,2013-01-11 10:44:00,
2013-01-11 05:50:00,41.6,34.3,30.06,SSE,166,2.0,-999.0,75,0.00,,,0.01,Wunderground v.1.15,2013-01-11 10:50:00,
2013-01-11 05:56:00,41.1,34.8,30.06,SSE,162,3.0,-999.0,78,0.00,,,0.01,Wunderground v.1.15,2013-01-11 10:56:00,
2013-01-11 06:01:00,41.1,35.1,30.06,SSE,155,4.0,-999.0,79,0.00,,,0.01,Wunderground v.1.15,2013-01-11 11:01:00,
2013-01-11 06:07:00,40.9,35.5,30.06,SSE,163,3.0,-999.0,81,0.00,,,0.01,Wunderground v.1.15,2013-01-11 11:07:00,
2013-01-11 06:13:00,40.8,35.7,30.06,SSE,161,2.0,-999.0,82,0.00,,,0.01,Wunderground v.1.15,2013-01-11 11:13:00,
2013-01-11 06:19:00,40.7,35.9,30.05,SSE,161,1.0,-999.0,83,0.00,,,0.02,Wunderground v.1.15,2013-01-11 11:19:00,
2013-01-11 06:25:00,40.5,36.0,30.05,SSE,161,0.0,-999.0,84,0.00,,,0.02,Wunderground v.1.15,2013-01-11 11:25:00,
2013-01-11 06:31:00,40.4,36.2,30.04,SSE,162,0.0,-999.0,85,0.06,,,0.03,Wunderground v.1.15,2013-01-11 11:31:00,
2013-01-11 06:36:00,40.4,36.5,30.04,SSE,162,0.0,-999.0,86,0.21,,,0.05,Wunderground v.1.15,2013-01-11 11:36:00,
2013-01-11 06:41:00,40.4,36.8,30.04,SSE,163,0.0,-999.0,87,0.13,,,0.06,Wunderground v.1.15,2013-01-11 11:41:00,
2013-01-11 06:47:00,40.3,36.7,30.03,SSE,163,1.0,-999.0,87,0.06,,,0.06,Wunderground v.1.15,2013-01-11 11:47:00,
2013-01-11 06:53:00,40.1,36.8,30.03,South,172,1.0,-999.0,88,0.04,,,0.06,Wunderground v.1.15,2013-01-11 11:53:00,
2013-01-11 06:59:00,40.1,36.8,30.03,SSE,161,3.0,-999.0,88,0.00,,,0.06,Wunderground v.1.15,2013-01-11 11:59:00,
2013-01-11 07:05:00,40.0,36.7,30.03,SSE,161,2.0,-999.0,88,0.00,,,0.06,Wunderground v.1.15,2013-01-11 12:05:00,
2013-01-11 07:11:00,40.1,36.8,30.02,SSE,163,2.0,-999.0,88,0.00,,,0.06,Wunderground v.1.15,2013-01-11 12:11:00,
2013-01-11 07:17:00,40.4,37.1,30.01,ENE,76,3.0,-999.0,88,0.00,,,0.06,Wunderground v.1.15,2013-01-11 12:17:00,
2013-01-11 07:23:00,40.6,37.3,30.01,SSE,163,3.0,-999.0,88,0.00,,,0.06,Wunderground v.1.15,2013-01-11 12:23:00,
2013-01-11 07:29:00,40.8,37.5,30.01,SSW,194,3.0,-999.0,88,0.00,,,0.06,Wunderground v.1.15,2013-01-11 12:29:00,
2013-01-11 07:35:00,40.7,37.4,30.00,SSW,194,2.0,-999.0,88,0.00,,,0.06,Wunderground v.1.15,2013-01-11 12:35:00,
2013-01-11 07:41:00,40.7,37.4,30.00,SSW,194,1.0,-999.0,88,0.00,,,0.06,Wunderground v.1.15,2013-01-11 12:41:00,
2013-01-11 07:46:00,40.7,37.4,29.99,SSW,194,0.0,-999.0,88,0.00,,,0.06,Wunderground v.1.15,2013-01-11 12:46:00,
2013-01-11 07:52:00,40.7,37.4,29.99,SSW,194,0.0,-999.0,88,0.00,,,0.06,Wunderground v.1.15,2013-01-11 12:52:00,
2013-01-11 07:58:00,40.7,37.7,29.99,SSW,194,0.0,-999.0,89,0.00,,,0.06,Wunderground v.1.15,2013-01-11 12:58:00,
2013-01-11 08:04:00,40.8,37.8,30.00,SSW,194,1.0,-999.0,89,0.00,,,0.06,Wunderground v.1.15,2013-01-11 13:04:00,
2013-01-11 08:10:00,40.9,37.9,30.00,SSW,194,0.0,-999.0,89,0.00,,,0.06,Wunderground v.1.15,2013-01-11 13:10:00,
2013-01-11 08:16:00,41.2,38.5,30.00,SSW,194,0.0,-999.0,90,0.00,,,0.07,Wunderground v.1.15,2013-01-11 13:16:00,
2013-01-11 08:22:00,41.3,38.3,29.99,SSW,194,0.0,-999.0,89,0.28,,,0.09,Wunderground v.1.15,2013-01-11 13:22:00,
2013-01-11 08:28:00,41.1,38.1,29.99,SSW,194,0.0,-999.0,89,0.10,,,0.10,Wunderground v.1.15,2013-01-11 13:28:00,
2013-01-11 08:33:00,41.3,38.9,29.98,SSW,194,0.0,-999.0,91,0.09,,,0.11,Wunderground v.1.15,2013-01-11 13:33:00,
2013-01-11 08:39:00,41.6,39.2,29.97,East,90,0.0,-999.0,91,0.09,,,0.11,Wunderground v.1.15,2013-01-11 13:39:00,
2013-01-11 08:44:00,42.0,39.8,29.97,SSE,150,0.0,-999.0,92,0.05,,,0.11,Wunderground v.1.15,2013-01-11 13:44:00,
2013-01-11 08:50:00,42.3,40.1,29.97,South,177,1.0,-999.0,92,0.00,,,0.11,Wunderground v.1.15,2013-01-11 13:50:00,
2013-01-11 08:56:00,42.5,40.3,29.96,South,177,1.0,-999.0,92,0.00,,,0.11,Wunderground v.1.15,2013-01-11 13:56:00,
2013-01-11 09:02:00,43.1,40.9,29.95,SSE,158,1.0,-999.0,92,0.00,,,0.11,Wunderground v.1.15,2013-01-11 14:02:00,
2013-01-11 09:08:00,43.5,41.6,29.96,SSE,158,1.0,-999.0,93,0.00,,,0.11,Wunderground v.1.15,2013-01-11 14:08:00,
2013-01-11 09:14:00,43.7,41.5,29.95,SSE,166,2.0,-999.0,92,0.00,,,0.11,Wunderground v.1.15,2013-01-11 14:14:00,
2013-01-11 09:19:00,44.1,42.2,29.95,South,181,3.0,-999.0,93,0.00,,,0.11,Wunderground v.1.15,2013-01-11 14:19:00,
2013-01-11 09:25:00,44.3,42.1,29.95,South,173,3.0,-999.0,92,0.00,,,0.11,Wunderground v.1.15,2013-01-11 14:25:00,
2013-01-11 09:31:00,44.5,42.3,29.95,SSW,195,2.0,-999.0,92,0.00,,,0.12,Wunderground v.1.15,2013-01-11 14:31:00,
2013-01-11 09:37:00,44.6,42.4,29.94,SSW,195,0.0,-999.0,92,0.11,,,0.14,Wunderground v.1.15,2013-01-11 14:37:00,
2013-01-11 09:43:00,44.8,42.9,29.94,South,191,0.0,-999.0,93,0.09,,,0.14,Wunderground v.1.15,2013-01-11 14:43:00,
2013-01-11 09:49:00,45.1,43.2,29.95,South,191,0.0,-999.0,93,0.05,,,0.14,Wunderground v.1.15,2013-01-11 14:49:00,
2013-01-11 09:55:00,45.3,43.4,29.96,South,191,1.0,-999.0,93,0.26,,,0.15,Wunderground v.1.15,2013-01-11 14:55:00,
2013-01-11 10:01:00,45.3,43.4,29.95,South,191,1.0,-999.0,93,0.23,,,0.19,Wunderground v.1.15,2013-01-11 15:01:00,
2013-01-11 10:07:00,45.3,43.4,29.94,South,191,0.0,-999.0,93,0.28,,,0.21,Wunderground v.1.15,2013-01-11 15:07:00,
2013-01-11 10:12:00,45.5,43.6,29.94,South,175,0.0,-999.0,93,0.29,,,0.23,Wunderground v.1.15,2013-01-11 15:12:00,
2013-01-11 10:18:00,45.7,43.8,29.92,South,175,0.0,-999.0,93,0.17,,,0.24,Wunderground v.1.15,2013-01-11 15:18:00,
2013-01-11 10:24:00,46.0,44.1,29.93,South,175,0.0,-999.0,93,0.12,,,0.25,Wunderground v.1.15,2013-01-11 15:24:00,
2013-01-11 10:30:00,46.1,44.2,29.93,South,175,0.0,-999.0,93,0.17,,,0.27,Wunderground v.1.15,2013-01-11 15:30:00,
2013-01-11 10:36:00,46.1,44.2,29.93,South,175,0.0,-999.0,93,0.50,,,0.33,Wunderground v.1.15,2013-01-11 15:36:00,
2013-01-11 10:42:00,46.1,44.2,29.93,South,175,0.0,-999.0,93,0.21,,,0.37,Wunderground v.1.15,2013-01-11 15:42:00,
2013-01-11 10:48:00,46.3,44.7,29.93,South,175,0.0,-999.0,94,0.10,,,0.38,Wunderground v.1.15,2013-01-11 15:48:00,
2013-01-11 10:53:00,46.4,44.8,29.93,South,175,0.0,-999.0,94,0.08,,,0.39,Wunderground v.1.15,2013-01-11 15:53:00,
2013-01-11 10:59:00,46.5,44.9,29.94,South,175,0.0,-999.0,94,0.06,,,0.39,Wunderground v.1.15,2013-01-11 15:59:00,
2013-01-11 11:05:00,46.6,45.0,29.94,South,175,0.0,-999.0,94,0.04,,,0.39,Wunderground v.1.15,2013-01-11 16:05:00,
2013-01-11 11:11:00,46.6,45.0,29.93,South,175,0.0,-999.0,94,0.00,,,0.39,Wunderground v.1.15,2013-01-11 16:11:00,
2013-01-11 11:17:00,46.3,44.4,29.93,South,175,0.0,-999.0,93,0.00,,,0.39,Wunderground v.1.15,2013-01-11 16:17:00,
2013-01-11 11:23:00,46.9,45.3,29.93,South,175,0.0,-999.0,94,0.00,,,0.39,Wunderground v.1.15,2013-01-11 16:23:00,
2013-01-11 11:29:00,47.0,45.4,29.92,South,175,0.0,-999.0,94,0.00,,,0.39,Wunderground v.1.15,2013-01-11 16:29:00,
2013-01-11 11:34:00,47.5,45.9,29.93,South,175,0.0,-999.0,94,0.00,,,0.39,Wunderground v.1.15,2013-01-11 16:34:00,
2013-01-11 11:40:00,48.2,46.6,29.92,South,175,0.0,-999.0,94,0.00,,,0.39,Wunderground v.1.15,2013-01-11 16:40:00,
2013-01-11 11:46:00,49.1,47.4,29.91,SSE,163,1.0,-999.0,94,0.00,,,0.40,Wunderground v.1.15,2013-01-11 16:46:00,
2013-01-11 11:52:00,50.0,48.3,29.91,South,180,2.0,-999.0,94,0.00,,,0.40,Wunderground v.1.15,2013-01-11 16:52:00,
2013-01-11 11:58:00,50.5,48.8,29.90,South,179,3.0,-999.0,94,0.00,,,0.40,Wunderground v.1.15,2013-01-11 16:58:00,
2013-01-11 12:04:00,50.9,49.2,29.90,South,180,5.0,-999.0,94,0.00,,,0.40,Wunderground v.1.15,2013-01-11 17:04:00,
2013-01-11 12:10:00,51.0,49.3,29.89,SSE,153,6.0,-999.0,94,0.00,,,0.41,Wunderground v.1.15,2013-01-11 17:10:00,
2013-01-11 12:15:00,50.6,48.9,29.87,South,169,6.0,-999.0,94,0.08,,,0.42,Wunderground v.1.15,2013-01-11 17:15:00,
2013-01-11 12:21:00,51.9,50.2,29.87,SSW,203,6.0,-999.0,94,0.07,,,0.42,Wunderground v.1.15,2013-01-11 17:21:00,
2013-01-11 12:27:00,53.2,51.5,29.86,SSW,200,8.0,-999.0,94,0.06,,,0.43,Wunderground v.1.15,2013-01-11 17:27:00,
2013-01-11 12:33:00,53.6,51.9,29.86,SSW,195,8.0,-999.0,94,0.05,,,0.43,Wunderground v.1.15,2013-01-11 17:33:00,
2013-01-11 12:39:00,53.9,52.2,29.85,South,180,8.0,-999.0,94,0.00,,,0.43,Wunderground v.1.15,2013-01-11 17:39:00,
2013-01-11 12:45:00,54.2,52.5,29.86,South,169,9.0,-999.0,94,0.00,,,0.43,Wunderground v.1.15,2013-01-11 17:45:00,
2013-01-11 12:51:00,54.0,52.0,29.86,SSW,203,10.0,-999.0,93,0.00,,,0.43,Wunderground v.1.15,2013-01-11 17:51:00,
2013-01-11 12:56:00,53.8,51.5,29.84,SSW,205,9.0,-999.0,92,0.00,,,0.43,Wunderground v.1.15,2013-01-11 17:56:00,
2013-01-11 13:02:00,53.7,51.4,29.86,SSW,197,9.0,-999.0,92,0.00,,,0.43,Wunderground v.1.15,2013-01-11 18:02:00,
2013-01-11 13:08:00,53.8,51.5,29.85,SW,229,8.0,-999.0,92,0.00,,,0.43,Wunderground v.1.15,2013-01-11 18:08:00,
2013-01-11 13:14:00,53.9,51.6,29.85,South,186,8.0,-999.0,92,0.00,,,0.43,Wunderground v.1.15,2013-01-11 18:14:00,
2013-01-11 13:20:00,53.9,51.6,29.85,SSW,203,6.0,-999.0,92,0.00,,,0.43,Wunderground v.1.15,2013-01-11 18:20:00,
2013-01-11 13:26:00,54.1,51.8,29.85,WSW,240,6.0,-999.0,92,0.00,,,0.43,Wunderground v.1.15,2013-01-11 18:26:00,
2013-01-11 13:32:00,54.3,52.0,29.86,SW,221,6.0,-999.0,92,0.00,,,0.43,Wunderground v.1.15,2013-01-11 18:32:00,
2013-01-11 13:38:00,54.5,52.2,29.86,SSW,209,6.0,-999.0,92,0.00,,,0.43,Wunderground v.1.15,2013-01-11 18:38:00,
2013-01-11 13:43:00,54.8,52.5,29.86,South,175,7.0,-999.0,92,0.00,,,0.43,Wunderground v.1.15,2013-01-11 18:43:00,
2013-01-11 13:49:00,54.9,52.3,29.87,South,188,7.0,-999.0,91,0.00,,,0.43,Wunderground v.1.15,2013-01-11 18:49:00,
2013-01-11 13:55:00,55.3,52.7,29.86,SSW,209,7.0,-999.0,91,0.00,,,0.43,Wunderground v.1.15,2013-01-11 18:55:00,
2013-01-11 14:01:00,55.6,53.0,29.86,South,185,6.0,-999.0,91,0.00,,,0.43,Wunderground v.1.15,2013-01-11 19:01:00,
2013-01-11 14:07:00,56.4,53.8,29.86,SSW,204,6.0,-999.0,91,0.00,,,0.43,Wunderground v.1.15,2013-01-11 19:07:00,
2013-01-11 14:13:00,56.7,53.5,29.86,SW,217,7.0,-999.0,89,0.00,,,0.43,Wunderground v.1.15,2013-01-11 19:13:00,
2013-01-11 14:19:00,57.2,53.7,29.87,SW,217,7.0,-999.0,88,0.00,,,0.43,Wunderground v.1.15,2013-01-11 19:19:00,
2013-01-11 14:25:00,57.3,53.8,29.87,SSW,202,7.0,-999.0,88,0.00,,,0.43,Wunderground v.1.15,2013-01-11 19:25:00,
2013-01-11 14:31:00,57.5,53.7,29.87,South,190,7.0,-999.0,87,0.00,,,0.43,Wunderground v.1.15,2013-01-11 19:31:00,
2013-01-11 14:36:00,57.5,53.3,29.86,SSW,210,8.0,-999.0,86,0.00,,,0.43,Wunderground v.1.15,2013-01-11 19:36:00,
2013-01-11 14:42:00,57.3,53.1,29.87,South,191,7.0,-999.0,86,0.00,,,0.43,Wunderground v.1.15,2013-01-11 19:42:00,
2013-01-11 14:48:00,57.2,53.0,29.87,SW,220,6.0,-999.0,86,0.00,,,0.43,Wunderground v.1.15,2013-01-11 19:48:00,
2013-01-11 14:54:00,57.5,53.3,29.87,WSW,240,5.0,-999.0,86,0.00,,,0.43,Wunderground v.1.15,2013-01-11 19:54:00,
2013-01-11 15:00:00,57.5,53.0,29.87,WSW,245,6.0,-999.0,85,0.00,,,0.43,Wunderground v.1.15,2013-01-11 20:00:00,
2013-01-11 15:05:00,57.6,53.1,29.88,SSW,201,6.0,-999.0,85,0.00,,,0.43,Wunderground v.1.15,2013-01-11 20:05:00,
2013-01-11 15:11:00,57.5,52.7,29.88,SW,236,6.0,-999.0,84,0.00,,,0.43,Wunderground v.1.15,2013-01-11 20:11:00,
2013-01-11 15:17:00,57.4,52.6,29.88,West,273,5.0,-999.0,84,0.00,,,0.43,Wunderground v.1.15,2013-01-11 20:17:00,
2013-01-11 15:22:00,57.3,52.5,29.88,SW,220,5.0,-999.0,84,0.00,,,0.43,Wunderground v.1.15,2013-01-11 20:22:00,
2013-01-11 15:28:00,57.1,52.3,29.88,SSW,207,5.0,-999.0,84,0.00,,,0.43,Wunderground v.1.15,2013-01-11 20:28:00,
2013-01-11 15:33:00,57.0,52.5,29.88,SSW,209,5.0,-999.0,85,0.00,,,0.43,Wunderground v.1.15,2013-01-11 20:33:00,
2013-01-11 15:39:00,57.1,52.6,29.88,SW,225,4.0,-999.0,85,0.00,,,0.43,Wunderground v.1.15,2013-01-11 20:39:00,
2013-01-11 15:45:00,57.2,52.7,29.89,WSW,239,4.0,-999.0,85,0.00,,,0.43,Wunderground v.1.15,2013-01-11 20:45:00,
2013-01-11 15:51:00,57.3,52.5,29.88,SSW,198,4.0,-999.0,84,0.00,,,0.43,Wunderground v.1.15,2013-01-11 20:51:00,
2013-01-11 15:57:00,57.3,52.5,29.88,South,190,4.0,-999.0,84,0.00,,,0.43,Wunderground v.1.15,2013-01-11 20:57:00,
2013-01-11 16:03:00,57.3,52.5,29.88,South,187,4.0,-999.0,84,0.00,,,0.43,Wunderground v.1.15,2013-01-11 21:03:00,
2013-01-11 16:09:00,57.4,52.6,29.88,SSW,198,4.0,-999.0,84,0.00,,,0.43,Wunderground v.1.15,2013-01-11 21:09:00,
2013-01-11 16:15:00,57.3,52.5,29.88,SSW,211,4.0,-999.0,84,0.00,,,0.43,Wunderground v.1.15,2013-01-11 21:15:00,
2013-01-11 16:20:00,57.3,52.5,29.88,SSW,205,3.0,-999.0,84,0.00,,,0.43,Wunderground v.1.15,2013-01-11 21:20:00,
2013-01-11 16:26:00,57.2,52.4,29.88,SSW,205,3.0,-999.0,84,0.00,,,0.43,Wunderground v.1.15,2013-01-11 21:26:00,
2013-01-11 16:32:00,57.1,52.3,29.88,SSW,193,3.0,-999.0,84,0.00,,,0.43,Wunderground v.1.15,2013-01-11 21:32:00,
2013-01-11 16:38:00,56.8,52.0,29.89,South,174,3.0,-999.0,84,0.00,,,0.43,Wunderground v.1.15,2013-01-11 21:38:00,
2013-01-11 16:44:00,56.5,51.7,29.88,South,184,4.0,-999.0,84,0.00,,,0.43,Wunderground v.1.15,2013-01-11 21:44:00,
2013-01-11 16:50:00,56.3,51.5,29.89,SSW,196,3.0,-999.0,84,0.00,,,0.43,Wunderground v.1.15,2013-01-11 21:50:00,
2013-01-11 16:56:00,55.9,51.1,29.89,South,188,2.0,-999.0,84,0.00,,,0.43,Wunderground v.1.15,2013-01-11 21:56:00,
2013-01-11 17:02:00,55.4,51.0,29.89,South,188,1.0,-999.0,85,0.00,,,0.43,Wunderground v.1.15,2013-01-11 22:02:00,
2013-01-11 17:07:00,54.8,50.4,29.89,South,188,0.0,-999.0,85,0.00,,,0.43,Wunderground v.1.15,2013-01-11 22:07:00,
2013-01-11 17:13:00,54.2,50.1,29.89,South,188,0.0,-999.0,86,0.00,,,0.43,Wunderground v.1.15,2013-01-11 22:13:00,
2013-01-11 17:19:00,53.4,49.3,29.89,South,188,0.0,-999.0,86,0.00,,,0.43,Wunderground v.1.15,2013-01-11 22:19:00,
2013-01-11 17:25:00,52.8,49.0,29.90,South,188,1.0,-999.0,87,0.00,,,0.43,Wunderground v.1.15,2013-01-11 22:25:00,
2013-01-11 17:31:00,52.0,48.6,29.90,South,188,1.0,-999.0,88,0.00,,,0.43,Wunderground v.1.15,2013-01-11 22:31:00,
2013-01-11 17:37:00,51.5,48.4,29.90,South,188,1.0,-999.0,89,0.00,,,0.43,Wunderground v.1.15,2013-01-11 22:37:00,
2013-01-11 17:43:00,50.5,47.1,29.90,South,188,1.0,-999.0,88,0.00,,,0.43,Wunderground v.1.15,2013-01-11 22:43:00,
2013-01-11 17:49:00,49.8,46.7,29.90,South,188,0.0,-999.0,89,0.00,,,0.43,Wunderground v.1.15,2013-01-11 22:49:00,
2013-01-11 17:55:00,49.6,47.1,29.90,South,188,0.0,-999.0,91,0.00,,,0.43,Wunderground v.1.15,2013-01-11 22:55:00,
2013-01-11 18:00:00,49.8,47.3,29.91,South,188,0.0,-999.0,91,0.00,,,0.43,Wunderground v.1.15,2013-01-11 23:00:00,
2013-01-11 18:06:00,49.9,47.7,29.91,South,188,0.0,-999.0,92,0.00,,,0.43,Wunderground v.1.15,2013-01-11 23:06:00,
2013-01-11 18:12:00,49.7,47.5,29.91,South,188,0.0,-999.0,92,0.00,,,0.43,Wunderground v.1.15,2013-01-11 23:12:00,
2013-01-11 18:18:00,49.6,47.4,29.91,South,188,0.0,-999.0,92,0.00,,,0.43,Wunderground v.1.15,2013-01-11 23:18:00,
2013-01-11 18:24:00,49.4,47.2,29.91,South,188,1.0,-999.0,92,0.00,,,0.43,Wunderground v.1.15,2013-01-11 23:24:00,
2013-01-11 18:30:00,49.3,47.1,29.91,South,188,2.0,-999.0,92,0.00,,,0.43,Wunderground v.1.15,2013-01-11 23:30:00,
2013-01-11 18:36:00,49.4,47.2,29.92,South,188,2.0,-999.0,92,0.00,,,0.43,Wunderground v.1.15,2013-01-11 23:36:00,
2013-01-11 18:42:00,49.6,47.4,29.92,South,188,1.0,-999.0,92,0.00,,,0.43,Wunderground v.1.15,2013-01-11 23:42:00,
2013-01-11 18:47:00,49.9,48.0,29.92,South,188,0.0,-999.0,93,0.00,,,0.43,Wunderground v.1.15,2013-01-11 23:47:00,
2013-01-11 18:53:00,50.1,47.9,29.92,South,178,1.0,-999.0,92,0.00,,,0.43,Wunderground v.1.15,2013-01-11 23:53:00,
2013-01-11 18:59:00,49.7,47.2,29.92,South,178,2.0,-999.0,91,0.00,,,0.43,Wunderground v.1.15,2013-01-11 23:59:00,
2013-01-11 19:05:00,49.2,46.7,29.93,South,178,1.0,-999.0,91,0.00,,,0.43,Wunderground v.1.15,2013-01-12 00:05:00,
2013-01-11 19:11:00,49.2,46.7,29.93,South,178,1.0,-999.0,91,0.00,,,0.43,Wunderground v.1.15,2013-01-12 00:11:00,
2013-01-11 19:17:00,49.2,46.7,29.92,South,178,0.0,-999.0,91,0.00,,,0.43,Wunderground v.1.15,2013-01-12 00:17:00,
2013-01-11 19:23:00,48.5,45.7,29.92,South,178,0.0,-999.0,90,0.00,,,0.43,Wunderground v.1.15,2013-01-12 00:23:00,
2013-01-11 19:28:00,48.1,45.6,29.93,South,178,0.0,-999.0,91,0.00,,,0.43,Wunderground v.1.15,2013-01-12 00:28:00,
2013-01-11 19:34:00,48.0,45.5,29.93,South,178,0.0,-999.0,91,0.00,,,0.43,Wunderground v.1.15,2013-01-12 00:34:00,
2013-01-11 19:40:00,47.2,44.4,29.93,South,178,0.0,-999.0,90,0.00,,,0.43,Wunderground v.1.15,2013-01-12 00:40:00,
2013-01-11 19:46:00,45.9,42.8,29.93,South,178,0.0,-999.0,89,0.00,,,0.43,Wunderground v.1.15,2013-01-12 00:46:00,
2013-01-11 19:52:00,45.2,42.4,29.93,South,178,0.0,-999.0,90,0.00,,,0.43,Wunderground v.1.15,2013-01-12 00:52:00,
2013-01-11 19:58:00,44.9,42.4,29.93,South,178,0.0,-999.0,91,0.00,,,0.43,Wunderground v.1.15,2013-01-12 00:58:00,
2013-01-11 20:03:00,44.6,42.1,29.93,South,178,0.0,-999.0,91,0.00,,,0.43,Wunderground v.1.15,2013-01-12 01:03:00,
2013-01-11 20:09:00,44.2,41.7,29.93,South,178,0.0,-999.0,91,0.00,,,0.43,Wunderground v.1.15,2013-01-12 01:09:00,
2013-01-11 20:15:00,43.8,41.3,29.93,South,178,0.0,-999.0,91,0.00,,,0.43,Wunderground v.1.15,2013-01-12 01:15:00,
2013-01-11 20:21:00,43.4,40.9,29.93,South,178,0.0,-999.0,91,0.00,,,0.43,Wunderground v.1.15,2013-01-12 01:21:00,
2013-01-11 20:27:00,43.1,40.7,29.93,South,178,0.0,-999.0,91,0.00,,,0.43,Wunderground v.1.15,2013-01-12 01:27:00,
2013-01-11 20:33:00,42.6,40.2,29.93,South,178,0.0,-999.0,91,0.00,,,0.43,Wunderground v.1.15,2013-01-12 01:33:00,
2013-01-11 20:39:00,41.9,39.5,29.93,South,178,0.0,-999.0,91,0.00,,,0.43,Wunderground v.1.15,2013-01-12 01:39:00,
2013-01-11 20:45:00,41.6,39.4,29.93,South,178,0.0,-999.0,92,0.00,,,0.43,Wunderground v.1.15,2013-01-12 01:45:00,
2013-01-11 20:51:00,41.5,39.3,29.93,South,178,0.0,-999.0,92,0.00,,,0.43,Wunderground v.1.15,2013-01-12 01:51:00,
2013-01-11 20:56:00,41.3,39.2,29.93,South,178,0.0,-999.0,92,0.00,,,0.43,Wunderground v.1.15,2013-01-12 01:56:00,
2013-01-11 21:02:00,41.1,39.0,29.93,South,178,0.0,-999.0,92,0.00,,,0.43,Wunderground v.1.15,2013-01-12 02:02:00,
2013-01-11 21:08:00,40.9,38.8,29.93,South,178,0.0,-999.0,92,0.00,,,0.43,Wunderground v.1.15,2013-01-12 02:08:00,
2013-01-11 21:14:00,40.6,38.5,29.93,South,178,0.0,-999.0,92,0.00,,,0.43,Wunderground v.1.15,2013-01-12 02:14:00,
2013-01-11 21:20:00,40.3,38.2,29.94,South,178,0.0,-999.0,92,0.00,,,0.43,Wunderground v.1.15,2013-01-12 02:20:00,
2013-01-11 21:26:00,40.2,38.1,29.94,South,178,0.0,-999.0,92,0.00,,,0.43,Wunderground v.1.15,2013-01-12 02:26:00,
2013-01-11 21:39:00,39.9,38.0,29.93,South,178,0.0,-999.0,93,0.00,,,0.43,Wunderground v.1.15,2013-01-12 02:39:00,
2013-01-11 21:44:00,39.6,37.5,29.93,South,178,0.0,-999.0,92,0.00,,,0.43,Wunderground v.1.15,2013-01-12 02:44:00,
2013-01-11 21:50:00,39.3,37.4,29.93,South,178,0.0,-999.0,93,0.00,,,0.43,Wunderground v.1.15,2013-01-12 02:50:00,
2013-01-11 21:55:00,39.3,37.4,29.93,South,178,0.0,-999.0,93,0.00,,,0.43,Wunderground v.1.15,2013-01-12 02:55:00,
2013-01-11 22:01:00,39.4,37.5,29.93,South,178,0.0,-999.0,93,0.00,,,0.43,Wunderground v.1.15,2013-01-12 03:01:00,
2013-01-11 22:06:00,39.4,37.5,29.94,South,178,0.0,-999.0,93,0.00,,,0.43,Wunderground v.1.15,2013-01-12 03:06:00,
2013-01-11 22:12:00,39.3,37.4,29.93,South,178,0.0,-999.0,93,0.00,,,0.43,Wunderground v.1.15,2013-01-12 03:12:00,
2013-01-11 22:18:00,39.1,37.2,29.93,South,178,0.0,-999.0,93,0.00,,,0.43,Wunderground v.1.15,2013-01-12 03:18:00,
2013-01-11 22:24:00,39.1,37.2,29.94,South,178,0.0,-999.0,93,0.00,,,0.43,Wunderground v.1.15,2013-01-12 03:24:00,
2013-01-11 22:30:00,39.0,37.4,29.94,South,178,0.0,-999.0,94,0.00,,,0.43,Wunderground v.1.15,2013-01-12 03:30:00,
2013-01-11 22:36:00,38.7,36.9,29.93,South,178,0.0,-999.0,93,0.00,,,0.43,Wunderground v.1.15,2013-01-12 03:36:00,
2013-01-11 22:42:00,38.4,36.6,29.94,South,178,0.0,-999.0,93,0.00,,,0.43,Wunderground v.1.15,2013-01-12 03:42:00,
2013-01-11 22:48:00,38.2,36.4,29.94,South,178,0.0,-999.0,93,0.00,,,0.43,Wunderground v.1.15,2013-01-12 03:48:00,
2013-01-11 22:54:00,38.0,36.2,29.93,South,178,0.0,-999.0,93,0.00,,,0.43,Wunderground v.1.15,2013-01-12 03:54:00,
2013-01-11 23:00:00,38.1,36.5,29.94,South,178,0.0,-999.0,94,0.00,,,0.43,Wunderground v.1.15,2013-01-12 04:00:00,
2013-01-11 23:05:00,38.5,36.9,29.94,South,178,0.0,-999.0,94,0.00,,,0.43,Wunderground v.1.15,2013-01-12 04:05:00,
2013-01-11 23:11:00,38.8,37.2,29.93,South,178,0.0,-999.0,94,0.00,,,0.43,Wunderground v.1.15,2013-01-12 04:11:00,
2013-01-11 23:16:00,39.1,37.5,29.93,South,178,0.0,-999.0,94,0.00,,,0.43,Wunderground v.1.15,2013-01-12 04:16:00,
2013-01-11 23:22:00,39.4,37.8,29.93,South,178,0.0,-999.0,94,0.00,,,0.43,Wunderground v.1.15,2013-01-12 04:22:00,
2013-01-11 23:28:00,39.7,38.1,29.93,South,178,0.0,-999.0,94,0.00,,,0.43,Wunderground v.1.15,2013-01-12 04:28:00,
2013-01-11 23:33:00,40.0,38.4,29.93,South,178,0.0,-999.0,94,0.00,,,0.43,Wunderground v.1.15,2013-01-12 04:33:00,
2013-01-11 23:39:00,40.4,38.8,29.93,South,178,0.0,-999.0,94,0.00,,,0.43,Wunderground v.1.15,2013-01-12 04:39:00,
2013-01-11 23:45:00,40.7,39.1,29.92,South,178,0.0,-999.0,94,0.00,,,0.43,Wunderground v.1.15,2013-01-12 04:45:00,
2013-01-11 23:51:00,41.0,39.4,29.93,South,178,0.0,-999.0,94,0.00,,,0.43,Wunderground v.1.15,2013-01-12 04:51:00,
2013-01-11 23:57:00,41.6,40.0,29.92,South,178,0.0,-999.0,94,0.00,,,0.43,Wunderground v.1.15,2013-01-12 04:57:00,